This demonstration page uses our WeatherBlox Daily Observations layout. Learn more.

Left ArrowRight Arrow

39.51506, -84.39828

Hourly Observations for November 29, 2021

Temp ( °F °C ) Dew Point ( °F °C ) Humidity (%) Winds ( mph kmh ) Pressure ( in mb ) Visibility ( mi km ) Precip ( " mm )
12:15 am 00:15 Clear 29 -1.9 19 -7 68 68 NW 7 11 30.17 1022 10 16 N/A
12:35 am 00:35 Clear 28 -2.1 19 -7.3 68 68 NW 6 9 30.17 1022 10 16 N/A
12:55 am 00:55 Clear 28 -2.3 18 -7.7 67 67 NW 3 6 30.17 1022 10 16 N/A
1:15 am 01:15 Clear 28 -2.4 18 -8 66 66 NW 6 9 30.17 1022 10 16 N/A
1:35 am 01:35 Clear 27 -2.6 17 -8.3 65 65 WNW 3 6 30.17 1022 10 16 N/A
1:55 am 01:55 Clear 27 -3 17 -8.5 66 66 N N/A 30.17 1022 10 16 N/A
2:15 am 02:15 Clear 26 -3.3 17 -8.4 68 68 N N/A 30.17 1022 10 16 N/A
2:35 am 02:35 Clear 25 -4 17 -8.1 73 73 SSW 5 7 30.19 1022 10 16 N/A
2:55 am 02:55 Clear 25 -3.9 17 -8.1 73 73 SSW 6 9 30.19 1022 10 16 N/A
3:15 am 03:15 Clear 26 -3.6 17 -8.1 71 71 SW 5 7 30.20 1023 10 16 N/A
3:35 am 03:35 Clear 26 -3.3 17 -8.2 69 69 N N/A 30.19 1022 10 16 N/A
3:55 am 03:55 Clear 26 -3.1 17 -8.6 66 66 W 3 6 30.19 1022 10 16 N/A
4:15 am 04:15 Clear 23 -4.9 20 -6.8 87 87 N N/A 30.21 1023 10 16 N/A
4:35 am 04:35 Clear 24 -4.7 19 -7.1 84 84 N N/A 30.21 1023 10 16 N/A
4:55 am 04:55 Clear 23 -5.2 17 -8.1 80 80 N N/A 30.21 1023 10 16 N/A
5:15 am 05:15 Clear 24 -4.7 15 -9.3 71 71 N N/A 30.21 1023 10 16 N/A
5:35 am 05:35 Clear 22 -5.3 17 -8.6 78 78 N N/A 30.22 1023 10 16 N/A
5:55 am 05:55 Clear 23 -5.2 20 -6.9 88 88 N N/A 30.22 1023 10 16 N/A
6:15 am 06:15 Clear 20 -6.4 19 -7.5 92 92 N N/A 30.22 1023 10 16 N/A
6:35 am 06:35 Clear 19 -7 18 -7.9 93 93 N N/A 30.23 1024 10 16 N/A
6:55 am 06:55 Clear 19 -7.1 17 -8.3 91 91 N N/A 30.24 1024 10 16 N/A
7:15 am 07:15 Clear 22 -5.4 20 -6.5 92 92 N N/A 30.24 1024 10 16 N/A
7:35 am 07:35 Clear 21 -6.2 18 -7.8 89 89 N N/A 30.24 1024 10 16 N/A
7:55 am 07:55 Sunny 21 -6.1 17 -8.3 85 85 N N/A 30.24 1024 10 16 N/A
8:15 am 08:15 Sunny 22 -5.6 19 -7.4 87 87 N N/A 30.24 1024 10 16 N/A
8:35 am 08:35 Sunny 23 -5 19 -7.3 84 84 SW 5 7 30.24 1024 10 16 N/A
8:55 am 08:55 Sunny 27 -2.7 20 -6.7 74 74 SW 5 7 30.23 1024 10 16 N/A
9:15 am 09:15 Sunny 28 -2.4 20 -6.5 74 74 N N/A 30.23 1024 10 16 N/A
9:35 am 09:35 Sunny 29 -1.5 20 -6.7 68 68 WSW 6 9 30.23 1024 10 16 N/A
9:55 am 09:55 Sunny 30 -0.9 20 -6.8 65 65 SW 5 7 30.24 1024 10 16 N/A
10:15 am 10:15 Sunny 32 -0.1 19 -7 60 60 SW 3 6 30.24 1024 10 16 N/A
10:35 am 10:35 Sunny 33 0.7 20 -6.8 58 58 SW 5 7 30.24 1024 10 16 N/A
10:55 am 10:55 Sunny 35 1.6 21 -6.3 56 56 S 5 7 30.23 1024 10 16 N/A
11:15 am 11:15 Sunny 37 2.5 20 -6.7 51 51 SSW 6 9 30.23 1024 10 16 N/A
11:35 am 11:35 Sunny 37 2.7 19 -7.3 48 48 SW 8 13 30.22 1023 10 16 N/A
11:55 am 11:55 Sunny 40 4.2 19 -7.5 43 43 SSW 8 13 30.19 1022 10 16 N/A
12:15 pm 12:15 Sunny 41 5.1 16 -9.1 35 35 W 13 20 30.18 1022 10 16 N/A
12:35 pm 12:35 Sunny 42 5.3 15 -9.6 34 34 WSW 9 15 30.17 1022 10 16 N/A
12:55 pm 12:55 Sunny 42 5.4 14 -10.1 32 32 SW 14 22 30.16 1021 10 16 N/A
1:15 pm 13:15 Sunny 42 5.4 12 -10.9 30 30 SW 10 17 30.16 1021 10 16 N/A
1:35 pm 13:35 Sunny 43 5.9 12 -11.3 28 28 WSW 13 20 30.14 1021 10 16 N/A
1:55 pm 13:55 Sunny 42 5.8 9 -12.6 26 26 SW 10 17 30.13 1020 10 16 N/A
2:15 pm 14:15 Sunny 43 6.2 10 -12.2 26 26 WSW 12 19 30.11 1020 10 16 N/A
2:35 pm 14:35 Sunny 43 6.3 10 -12.3 25 25 WSW 12 19 30.11 1020 10 16 N/A
2:55 pm 14:55 Partly Cloudy 44 6.8 11 -11.7 26 26 SW 13 20 30.10 1019 10 16 N/A
3:15 pm 15:15 Cloudy 43 6.1 11 -11.8 27 27 SW 9 15 30.11 1020 10 16 N/A
3:35 pm 15:35 Cloudy 43 6.2 11 -11.5 27 27 SW 13 20 30.10 1019 10 16 N/A
3:55 pm 15:55 Cloudy 43 6.1 13 -10.4 30 30 SW 9 15 30.09 1019 10 16 N/A
4:15 pm 16:15 Cloudy 43 5.9 13 -10.3 30 30 WSW 9 15 30.08 1019 10 16 N/A
4:35 pm 16:35 Mostly Cloudy 42 5.4 12 -10.9 30 30 SW 12 19 30.07 1018 10 16 N/A
4:55 pm 16:55 Mostly Cloudy 42 5.4 15 -9.5 34 34 SSW 10 17 30.06 1018 10 16 N/A
5:15 pm 17:15 Partly Cloudy 41 5 13 -10.4 32 32 SSW 8 13 30.06 1018 10 16 N/A
5:35 pm 17:35 Mostly Cloudy 41 5.1 14 -10.2 32 32 SSW 8 13 30.07 1018 10 16 N/A
5:55 pm 17:55 Cloudy 41 5.2 14 -10.2 32 32 SSW 8 13 30.06 1018 10 16 N/A
6:15 pm 18:15 Cloudy 42 5.3 14 -10.2 32 32 SW 9 15 30.06 1018 10 16 N/A
6:35 pm 18:35 Cloudy 42 5.3 13 -10.3 32 32 SSW 9 15 30.06 1018 10 16 N/A
6:55 pm 18:55 Cloudy 42 5.3 13 -10.8 31 31 SSW 13 20 30.06 1018 10 16 N/A
7:15 pm 19:15 Cloudy 42 5.3 12 -10.9 30 30 SSW 13 20 30.04 1017 10 16 N/A
7:35 pm 19:35 Cloudy 42 5.3 12 -10.9 30 30 S 12 19 30.03 1017 10 16 N/A
7:55 pm 19:55 Cloudy 41 5.2 13 -10.8 31 31 SSW 10 17 30.02 1017 10 16 N/A
8:15 pm 20:15 Cloudy 41 5.2 13 -10.7 31 31 S 12 19 30.02 1017 10 16 N/A
8:35 pm 20:35 Mostly Cloudy 41 5 13 -10.5 32 32 SSW 9 15 30.02 1017 10 16 N/A
8:55 pm 20:55 Mostly Cloudy 41 4.9 13 -10.4 32 32 SSW 10 17 30.01 1016 10 16 N/A
9:15 pm 21:15 Cloudy 41 5 14 -10.1 33 33 SSW 10 17 30.01 1016 10 16 N/A
9:35 pm 21:35 Cloudy 41 4.9 15 -9.7 34 34 SSW 8 13 30.01 1016 10 16 N/A
9:55 pm 21:55 Cloudy 41 4.8 15 -9.3 36 36 SSW 8 13 30.01 1016 10 16 N/A
10:15 pm 22:15 Cloudy 41 4.8 15 -9.3 36 36 SSW 9 15 30.01 1016 10 16 N/A
10:35 pm 22:35 Cloudy 41 4.9 15 -9.3 35 35 SSW 9 15 30.01 1016 10 16 N/A
10:55 pm 22:55 Cloudy 41 4.9 15 -9.5 35 35 SSW 9 15 30.00 1016 10 16 N/A
11:15 pm 23:15 Cloudy 41 5 15 -9.7 34 34 SSW 10 17 30.00 1016 10 16 N/A
11:35 pm 23:35 Cloudy 40 4.7 15 -9.5 35 35 SSW 10 17 30.00 1016 10 16 N/A
11:55 pm 23:55 Cloudy 40 4.7 15 -9.7 35 35 SSW 12 19 29.99 1016 10 16 N/A

Powered by AerisWeather